,,,PA_Meas_PMT16A,,PR_Meas_QMR101_102,,RH_Meas_QMH101,,SR_Meas_QMS101,,TA_Meas_QMH101,,GenWind,,GenWind,
date,time,status,PA,status,PR,status,RH,status,SR,status,TA,status,DirAvg,status,SpdAvg,
2010-12-09, 00:00:04,VALID,1008.84,VALID,0,VALID,103.939,VALID,0,VALID,23.1679,VALID,131,VALID,0.322656,
2010-12-09, 00:01:04,VALID,1008.85,VALID,0,VALID,103.939,VALID,0,VALID,23.1485,VALID,131,VALID,0,
2010-12-09, 00:02:04,VALID,1008.85,VALID,0,VALID,103.954,VALID,0,VALID,23.1485,VALID,131,VALID,0,
2010-12-09, 00:03:04,VALID,1008.83,VALID,0,VALID,103.939,VALID,0,VALID,23.1679,VALID,131,VALID,0,
2010-12-09, 00:04:04,VALID,1008.85,VALID,0,VALID,103.931,VALID,0,VALID,23.1485,VALID,119,VALID,0,
2010-12-09, 00:05:04,VALID,1008.81,VALID,0,VALID,103.931,VALID,0,VALID,23.1485,VALID,119,VALID,0,
2010-12-09, 00:06:04,VALID,1008.81,VALID,0,VALID,103.939,VALID,0,VALID,23.1485,VALID,119,VALID,0,
2010-12-09, 00:07:04,VALID,1008.78,VALID,0,VALID,103.947,VALID,0,VALID,23.129,VALID,119,VALID,0,
2010-12-09, 00:08:04,VALID,1008.74,VALID,0,VALID,103.931,VALID,0,VALID,23.129,VALID,119,VALID,0,
2010-12-09, 00:09:04,VALID,1008.71,VALID,0,VALID,103.931,VALID,0,VALID,23.129,VALID,119,VALID,0,
2010-12-09, 00:10:04,VALID,1008.7,VALID,0,VALID,103.939,VALID,0,VALID,23.129,VALID,119,VALID,0,
2010-12-09, 00:11:04,VALID,1008.68,VALID,0,VALID,103.954,VALID,0,VALID,23.1272,VALID,140,VALID,0,
2010-12-09, 00:12:04,VALID,1008.67,VALID,0,VALID,103.97,VALID,0,VALID,23.129,VALID,149,VALID,0,
2010-12-09, 00:13:04,VALID,1008.64,VALID,0,VALID,103.947,VALID,0,VALID,23.1485,VALID,134,VALID,0,
2010-12-09, 00:14:04,VALID,1008.64,VALID,0,VALID,103.977,VALID,0,VALID,23.1485,VALID,150,VALID,0,
2010-12-09, 00:15:04,VALID,1008.58,VALID,0,VALID,103.97,VALID,0,VALID,23.1485,VALID,150,VALID,0.196094,
2010-12-09, 00:16:04,VALID,1008.55,VALID,0,VALID,103.977,VALID,0,VALID,23.1485,VALID,150,VALID,0.486328,
2010-12-09, 00:17:04,VALID,1008.54,VALID,0,VALID,103.985,VALID,0,VALID,23.1485,VALID,151,VALID,0.556641,
2010-12-09, 00:18:04,VALID,1008.52,VALID,0,VALID,103.977,VALID,0,VALID,23.1697,VALID,153,VALID,0.913281,
2010-12-09, 00:19:04,VALID,1008.48,VALID,0,VALID,103.97,VALID,0,VALID,23.1697,VALID,137,VALID,0.615625,
2010-12-09, 00:20:04,VALID,1008.48,VALID,0,VALID,103.977,VALID,0,VALID,23.1485,VALID,160,VALID,0.791406,
2010-12-09, 00:21:04,VALID,1008.49,VALID,0,VALID,103.992,VALID,0,VALID,23.1679,VALID,160,VALID,0.190234,
2010-12-09, 00:22:04,VALID,1008.44,VALID,0,VALID,103.97,VALID,0,VALID,23.1679,VALID,160,VALID,0.250781,
2010-12-09, 00:23:04,VALID,1008.43,VALID,0,VALID,103.992,VALID,0,VALID,23.1679,VALID,160,VALID,0.28125,
2010-12-09, 00:24:04,VALID,1008.43,VALID,0,VALID,104,VALID,0,VALID,23.1679,VALID,160,VALID,0.335547,
2010-12-09, 00:25:04,VALID,1008.41,VALID,0,VALID,103.97,VALID,0,VALID,23.1874,VALID,160,VALID,0.635547,
2010-12-09, 00:26:04,VALID,1008.41,VALID,0,VALID,103.977,VALID,0,VALID,23.1874,VALID,143,VALID,0.0960938,
2010-12-09, 00:27:04,VALID,1008.42,VALID,0,VALID,103.985,VALID,0,VALID,23.1874,VALID,143,VALID,0.371484,
2010-12-09, 00:28:04,VALID,1008.41,VALID,0,VALID,103.992,VALID,0,VALID,23.1874,VALID,143,VALID,0,
2010-12-09, 00:29:04,VALID,1008.4,VALID,0,VALID,104,VALID,0,VALID,23.2069,VALID,143,VALID,0.193359,
2010-12-09, 00:30:04,VALID,1008.39,VALID,0,VALID,104,VALID,0,VALID,23.1857,VALID,148,VALID,0.0125,
2010-12-09, 00:31:04,VALID,1008.37,VALID,0,VALID,104,VALID,0,VALID,23.2069,VALID,141,VALID,0.425,
2010-12-09, 00:32:04,VALID,1008.34,VALID,0,VALID,104,VALID,0.105969,VALID,23.2051,VALID,141,VALID,0,
2010-12-09, 00:33:04,VALID,1008.35,VALID,0,VALID,104,VALID,0,VALID,23.2671,VALID,141,VALID,0.403125,
2010-12-09, 00:34:04,VALID,1008.36,VALID,0,VALID,103.992,VALID,0,VALID,23.2264,VALID,141,VALID,0.442969,
2010-12-09, 00:35:04,VALID,1008.36,VALID,0,VALID,103.992,VALID,0,VALID,23.2654,VALID,141,VALID,0,
2010-12-09, 00:36:04,VALID,1008.32,VALID,0,VALID,103.985,VALID,0.105969,VALID,23.2848,VALID,141,VALID,0,
2010-12-09, 00:37:04,VALID,1008.35,VALID,0,VALID,104,VALID,0,VALID,23.2848,VALID,104,VALID,0.587891,
2010-12-09, 00:38:04,VALID,1008.37,VALID,0,VALID,104,VALID,0,VALID,23.2848,VALID,104,VALID,0.378516,
2010-12-09, 00:39:04,VALID,1008.36,VALID,0,VALID,104,VALID,0,VALID,23.2848,VALID,104,VALID,0.417578,
2010-12-09, 00:40:04,VALID,1008.37,VALID,0,VALID,103.992,VALID,0,VALID,23.2848,VALID,104,VALID,0.537891,
2010-12-09, 00:41:04,VALID,1008.35,VALID,0,VALID,103.977,VALID,0,VALID,23.3238,VALID,155,VALID,0.617969,
2010-12-09, 00:42:04,VALID,1008.31,VALID,0,VALID,103.992,VALID,0,VALID,23.3238,VALID,166,VALID,0.367578,
2010-12-09, 00:43:04,VALID,1008.3,VALID,0,VALID,103.985,VALID,0,VALID,23.3238,VALID,152,VALID,0.318359,
2010-12-09, 00:44:04,VALID,1008.29,VALID,0,VALID,103.992,VALID,0,VALID,23.3238,VALID,152,VALID,0.246484,
2010-12-09, 00:45:04,VALID,1008.31,VALID,0,VALID,103.97,VALID,0,VALID,23.3026,VALID,152,VALID,0.508594,
2010-12-09, 00:46:04,VALID,1008.31,VALID,0,VALID,103.954,VALID,0,VALID,23.3433,VALID,152,VALID,0.178906,
2010-12-09, 00:47:04,VALID,1008.32,VALID,0,VALID,103.962,VALID,0,VALID,23.3433,VALID,152,VALID,0,
2010-12-09, 00:48:04,VALID,1008.29,VALID,0,VALID,103.962,VALID,0,VALID,23.3628,VALID,152,VALID,0,
2010-12-09, 00:49:04,VALID,1008.28,VALID,0,VALID,103.954,VALID,0,VALID,23.3628,VALID,152,VALID,0,
2010-12-09, 00:50:04,VALID,1008.26,VALID,0,VALID,103.931,VALID,0,VALID,23.3645,VALID,150,VALID,0,
2010-12-09, 00:51:04,VALID,1008.26,VALID,0,VALID,103.962,VALID,0,VALID,23.3433,VALID,174,VALID,0,
2010-12-09, 00:52:04,VALID,1008.22,VALID,0,VALID,103.931,VALID,0,VALID,23.3645,VALID,172,VALID,0,
2010-12-09, 00:53:04,VALID,1008.21,VALID,0,VALID,103.916,VALID,0,VALID,23.361,VALID,129,VALID,0.821875,
2010-12-09, 00:54:04,VALID,1008.22,VALID,0,VALID,103.886,VALID,0,VALID,23.4017,VALID,127,VALID,0.93125,
2010-12-09, 00:55:04,VALID,1008.18,VALID,0,VALID,103.863,VALID,0,VALID,23.4017,VALID,134,VALID,0.664063,
2010-12-09, 00:56:04,VALID,1008.17,VALID,0,VALID,103.817,VALID,0,VALID,23.4212,VALID,146,VALID,0.670313,
2010-12-09, 00:57:04,VALID,1008.16,VALID,0,VALID,103.825,VALID,0,VALID,23.4212,VALID,120,VALID,0.584375,
2010-12-09, 00:58:04,VALID,1008.17,VALID,0,VALID,103.809,VALID,0,VALID,23.4425,VALID,120,VALID,0.317578,
2010-12-09, 00:59:04,VALID,1008.17,VALID,0,VALID,103.779,VALID,0,VALID,23.4212,VALID,120,VALID,0.00625,
2010-12-09, 01:00:04,VALID,1008.16,VALID,0,VALID,103.748,VALID,0,VALID,23.4212,VALID,120,VALID,0,
2010-12-09, 01:01:04,VALID,1008.14,VALID,0,VALID,103.741,VALID,0,VALID,23.4602,VALID,120,VALID,0,
2010-12-09, 01:02:04,VALID,1008.13,VALID,0,VALID,103.756,VALID,0,VALID,23.4407,VALID,120,VALID,0.298828,
2010-12-09, 01:03:04,VALID,1008.14,VALID,0,VALID,103.726,VALID,0,VALID,23.4407,VALID,120,VALID,0,
2010-12-09, 01:04:04,VALID,1008.11,VALID,0,VALID,103.695,VALID,0,VALID,23.4407,VALID,111,VALID,0,
2010-12-09, 01:05:04,VALID,1008.14,VALID,0,VALID,103.726,VALID,0,VALID,23.4212,VALID,111,VALID,0,
2010-12-09, 01:06:04,VALID,1008.16,VALID,0,VALID,103.68,VALID,0,VALID,23.4407,VALID,111,VALID,0,
2010-12-09, 01:07:04,VALID,1008.16,VALID,0,VALID,103.68,VALID,0,VALID,23.4407,VALID,111,VALID,0,
2010-12-09, 01:08:04,VALID,1008.12,VALID,0,VALID,103.695,VALID,0,VALID,23.4407,VALID,111,VALID,0,
2010-12-09, 01:09:04,VALID,1008.11,VALID,0,VALID,103.71,VALID,0,VALID,23.4407,VALID,111,VALID,0,
2010-12-09, 01:10:04,VALID,1008.12,VALID,0,VALID,103.703,VALID,0,VALID,23.4212,VALID,111,VALID,0,
2010-12-09, 01:11:04,VALID,1008.08,VALID,0,VALID,103.703,VALID,0,VALID,23.4212,VALID,111,VALID,0,
2010-12-09, 01:12:04,VALID,1008.08,VALID,0,VALID,103.703,VALID,0,VALID,23.4407,VALID,111,VALID,0,
2010-12-09, 01:13:04,VALID,1008.05,VALID,0,VALID,103.733,VALID,0,VALID,23.4017,VALID,111,VALID,0,
2010-12-09, 01:14:04,VALID,1008.02,VALID,0,VALID,103.756,VALID,0,VALID,23.4017,VALID,111,VALID,0,
2010-12-09, 01:15:04,VALID,1008.02,VALID,0,VALID,103.756,VALID,0,VALID,23.3823,VALID,111,VALID,0,
2010-12-09, 01:16:04,VALID,1008.02,VALID,0,VALID,103.756,VALID,0,VALID,23.3823,VALID,111,VALID,0,
2010-12-09, 01:17:04,VALID,1008.01,VALID,0,VALID,103.779,VALID,0,VALID,23.4035,VALID,111,VALID,0,
2010-12-09, 01:18:04,VALID,1008,VALID,0,VALID,103.809,VALID,0,VALID,23.3823,VALID,111,VALID,0,
2010-12-09, 01:19:04,VALID,1007.99,VALID,0,VALID,103.825,VALID,0,VALID,23.3433,VALID,111,VALID,0,
2010-12-09, 01:20:04,VALID,1007.98,VALID,0,VALID,103.84,VALID,0,VALID,23.3433,VALID,111,VALID,0,
2010-12-09, 01:21:04,VALID,1007.93,VALID,0,VALID,103.863,VALID,0,VALID,23.3433,VALID,111,VALID,0,
2010-12-09, 01:22:04,VALID,1007.94,VALID,0,VALID,103.893,VALID,0,VALID,23.322,VALID,111,VALID,0,
2010-12-09, 01:23:04,VALID,1007.94,VALID,0,VALID,103.878,VALID,0,VALID,23.3238,VALID,111,VALID,0,
2010-12-09, 01:24:04,VALID,1007.92,VALID,0,VALID,103.901,VALID,0,VALID,23.3256,VALID,111,VALID,0,
2010-12-09, 01:25:04,VALID,1007.92,VALID,0,VALID,103.909,VALID,0,VALID,23.2848,VALID,111,VALID,0,
2010-12-09, 01:26:04,VALID,1007.91,VALID,0,VALID,103.924,VALID,0,VALID,23.2866,VALID,111,VALID,0,
2010-12-09, 01:27:04,VALID,1007.86,VALID,0,VALID,103.924,VALID,0,VALID,23.2848,VALID,111,VALID,0,
2010-12-09, 01:28:04,VALID,1007.87,VALID,0,VALID,103.947,VALID,0,VALID,23.2848,VALID,111,VALID,0,
2010-12-09, 01:29:04,VALID,1007.87,VALID,0,VALID,103.947,VALID,0,VALID,23.2654,VALID,111,VALID,0,
2010-12-09, 01:30:04,VALID,1007.85,VALID,0,VALID,103.954,VALID,0,VALID,23.2654,VALID,111,VALID,0,
2010-12-09, 01:31:04,VALID,1007.84,VALID,0,VALID,103.954,VALID,0,VALID,23.2654,VALID,111,VALID,0,
2010-12-09, 01:32:05,VALID,1007.83,VALID,0,VALID,103.977,VALID,0,VALID,23.2459,VALID,111,VALID,0,
2010-12-09, 01:33:05,VALID,1007.82,VALID,0,VALID,103.992,VALID,0,VALID,23.2476,VALID,111,VALID,0,
2010-12-09, 01:34:05,VALID,1007.8,VALID,0,VALID,103.977,VALID,0,VALID,23.2671,VALID,111,VALID,0,
2010-12-09, 01:35:05,VALID,1007.78,VALID,0,VALID,104,VALID,0,VALID,23.2264,VALID,111,VALID,0,
2010-12-09, 01:36:05,VALID,1007.78,VALID,0,VALID,103.985,VALID,0,VALID,23.2264,VALID,111,VALID,0,
2010-12-09, 01:37:05,VALID,1007.76,VALID,0,VALID,104,VALID,0,VALID,23.2069,VALID,111,VALID,0,
2010-12-09, 01:38:05,VALID,1007.74,VALID,0,VALID,104,VALID,0,VALID,23.2087,VALID,111,VALID,0,
2010-12-09, 01:39:05,VALID,1007.74,VALID,0,VALID,103.992,VALID,0,VALID,23.1874,VALID,111,VALID,0,
2010-12-09, 01:40:05,VALID,1007.75,VALID,0,VALID,104,VALID,0,VALID,23.1874,VALID,111,VALID,0,
2010-12-09, 01:41:05,VALID,1007.75,VALID,0,VALID,103.992,VALID,0,VALID,23.2087,VALID,111,VALID,0,
2010-12-09, 01:42:05,VALID,1007.75,VALID,0,VALID,104,VALID,0,VALID,23.1892,VALID,111,VALID,0,
2010-12-09, 01:43:05,VALID,1007.74,VALID,0,VALID,104,VALID,0,VALID,23.1874,VALID,111,VALID,0,
2010-12-09, 01:44:05,VALID,1007.74,VALID,0,VALID,104,VALID,0,VALID,23.1874,VALID,111,VALID,0,
2010-12-09, 01:45:05,VALID,1007.73,VALID,0,VALID,104,VALID,0,VALID,23.1892,VALID,111,VALID,0,
2010-12-09, 01:46:05,VALID,1007.74,VALID,0,VALID,104,VALID,0,VALID,23.1679,VALID,111,VALID,0,
2010-12-09, 01:47:05,VALID,1007.74,VALID,0,VALID,104,VALID,0,VALID,23.1679,VALID,111,VALID,0,
2010-12-09, 01:48:05,VALID,1007.71,VALID,0,VALID,104,VALID,0,VALID,23.1697,VALID,111,VALID,0,
2010-12-09, 01:49:05,VALID,1007.73,VALID,0,VALID,104,VALID,0,VALID,23.1485,VALID,111,VALID,0,
2010-12-09, 01:50:05,VALID,1007.74,VALID,0,VALID,104,VALID,0,VALID,23.1697,VALID,111,VALID,0,
2010-12-09, 01:51:05,VALID,1007.72,VALID,0,VALID,104,VALID,0,VALID,23.1485,VALID,111,VALID,0,
2010-12-09, 01:52:05,VALID,1007.71,VALID,0,VALID,104,VALID,0,VALID,23.1485,VALID,111,VALID,0.667969,
2010-12-09, 01:53:05,VALID,1007.7,VALID,0,VALID,104,VALID,0,VALID,23.129,VALID,111,VALID,0.826563,
2010-12-09, 01:54:05,VALID,1007.7,VALID,0,VALID,104,VALID,0,VALID,23.129,VALID,111,VALID,0.903125,
2010-12-09, 01:55:05,VALID,1007.71,VALID,0,VALID,104,VALID,0,VALID,23.129,VALID,111,VALID,0.610937,
2010-12-09, 01:56:05,VALID,1007.73,VALID,0,VALID,104,VALID,0,VALID,23.129,VALID,111,VALID,0.719531,
2010-12-09, 01:57:05,VALID,1007.75,VALID,0,VALID,104,VALID,0,VALID,23.1095,VALID,111,VALID,0.497656,
2010-12-09, 01:58:05,VALID,1007.75,VALID,0,VALID,104,VALID,0,VALID,23.129,VALID,111,VALID,0.746094,
2010-12-09, 01:59:05,VALID,1007.76,VALID,0,VALID,104,VALID,0,VALID,23.129,VALID,111,VALID,0.560938,
2010-12-09, 02:00:05,VALID,1007.74,VALID,0,VALID,104,VALID,0,VALID,23.129,VALID,111,VALID,0.617188,
2010-12-09, 02:01:05,VALID,1007.72,VALID,0,VALID,104,VALID,0,VALID,23.1095,VALID,111,VALID,0.778125,
2010-12-09, 02:02:05,VALID,1007.7,VALID,0,VALID,104,VALID,0,VALID,23.1095,VALID,111,VALID,0.674219,
2010-12-09, 02:03:05,VALID,1007.68,VALID,0,VALID,104,VALID,0,VALID,23.1095,VALID,128,VALID,0.783203,
2010-12-09, 02:04:05,VALID,1007.64,VALID,0,VALID,104,VALID,0,VALID,23.09,VALID,114,VALID,0.757031,
2010-12-09, 02:05:05,VALID,1007.66,VALID,0,VALID,104,VALID,0,VALID,23.1095,VALID,114,VALID,0.582031,
2010-12-09, 02:06:05,VALID,1007.64,VALID,0,VALID,104,VALID,0,VALID,23.1095,VALID,113,VALID,0.468359,
2010-12-09, 02:07:05,VALID,1007.65,VALID,0,VALID,104,VALID,0,VALID,23.1095,VALID,113,VALID,0.0410156,
2010-12-09, 02:08:05,VALID,1007.63,VALID,0,VALID,104,VALID,0,VALID,23.129,VALID,114,VALID,0,
2010-12-09, 02:09:05,VALID,1007.65,VALID,0,VALID,104,VALID,0,VALID,23.1095,VALID,114,VALID,0.343359,
2010-12-09, 02:10:05,VALID,1007.63,VALID,0,VALID,103.992,VALID,0,VALID,23.1095,VALID,114,VALID,0.601563,
2010-12-09, 02:11:05,VALID,1007.62,VALID,0,VALID,104,VALID,0,VALID,23.1095,VALID,114,VALID,0.652344,
2010-12-09, 02:12:05,VALID,1007.63,VALID,0,VALID,103.992,VALID,0,VALID,23.1095,VALID,114,VALID,0.469531,
2010-12-09, 02:13:05,VALID,1007.65,VALID,0,VALID,104,VALID,0,VALID,23.1095,VALID,112,VALID,0.560156,
2010-12-09, 02:14:05,VALID,1007.68,VALID,0,VALID,104,VALID,0,VALID,23.1095,VALID,110,VALID,0.648047,
2010-12-09, 02:15:05,VALID,1007.69,VALID,0,VALID,104,VALID,0,VALID,23.1095,VALID,96,VALID,0.658203,
2010-12-09, 02:16:05,VALID,1007.71,VALID,0,VALID,104,VALID,0,VALID,23.1095,VALID,56,VALID,0.902734,
2010-12-09, 02:17:05,VALID,1007.73,VALID,0,VALID,104,VALID,0,VALID,23.09,VALID,47,VALID,0.69375,
2010-12-09, 02:18:05,VALID,1007.73,VALID,0,VALID,104,VALID,0,VALID,23.09,VALID,40,VALID,0.678516,
2010-12-09, 02:19:05,VALID,1007.75,VALID,0,VALID,104,VALID,0,VALID,23.09,VALID,31,VALID,0.454297,
2010-12-09, 02:20:05,VALID,1007.75,VALID,0,VALID,103.985,VALID,0,VALID,23.09,VALID,31,VALID,0.380469,
2010-12-09, 02:21:05,VALID,1007.74,VALID,0,VALID,104,VALID,0,VALID,23.0705,VALID,31,VALID,0.0480469,
2010-12-09, 02:22:05,VALID,1007.77,VALID,0,VALID,104,VALID,0,VALID,23.0918,VALID,31,VALID,0,
2010-12-09, 02:23:05,VALID,1007.77,VALID,0,VALID,104,VALID,0,VALID,23.0705,VALID,36,VALID,0.433984,
2010-12-09, 02:24:05,VALID,1007.78,VALID,0,VALID,104,VALID,0,VALID,23.0316,VALID,34,VALID,0.617188,
2010-12-09, 02:25:05,VALID,1007.74,VALID,0,VALID,104,VALID,0,VALID,23.0316,VALID,34,VALID,0.184766,
2010-12-09, 02:26:05,VALID,1007.73,VALID,0,VALID,104,VALID,0,VALID,23.0298,VALID,34,VALID,0.258203,
2010-12-09, 02:27:05,VALID,1007.71,VALID,0,VALID,104,VALID,0,VALID,23.0316,VALID,34,VALID,0,
2010-12-09, 02:28:05,VALID,1007.7,VALID,0,VALID,104,VALID,0,VALID,23.0121,VALID,39,VALID,0,
2010-12-09, 02:29:05,VALID,1007.71,VALID,0,VALID,104,VALID,0,VALID,23.0121,VALID,39,VALID,0,
2010-12-09, 02:30:05,VALID,1007.71,VALID,0,VALID,104,VALID,0,VALID,23.0121,VALID,39,VALID,0,
2010-12-09, 02:31:05,VALID,1007.72,VALID,0,VALID,104,VALID,0,VALID,22.9926,VALID,38,VALID,0,
2010-12-09, 02:32:05,VALID,1007.71,VALID,0,VALID,104,VALID,0,VALID,22.9926,VALID,32,VALID,0,
2010-12-09, 02:33:05,VALID,1007.73,VALID,0,VALID,104,VALID,0.105969,VALID,22.9926,VALID,30,VALID,0.659375,
2010-12-09, 02:34:05,VALID,1007.76,VALID,0,VALID,104,VALID,0,VALID,22.9926,VALID,30,VALID,0.528906,
2010-12-09, 02:35:05,VALID,1007.78,VALID,0,VALID,104,VALID,0,VALID,23.0121,VALID,30,VALID,0.529297,
2010-12-09, 02:36:05,VALID,1007.8,VALID,0,VALID,104,VALID,0,VALID,23.0121,VALID,30,VALID,0.517969,
2010-12-09, 02:37:05,VALID,1007.84,VALID,0,VALID,103.97,VALID,0,VALID,23.0121,VALID,346,VALID,0.861328,
2010-12-09, 02:38:05,VALID,1007.91,VALID,0,VALID,103.977,VALID,0,VALID,23.0121,VALID,303,VALID,0.760156,
2010-12-09, 02:39:05,VALID,1007.95,VALID,0,VALID,103.962,VALID,0,VALID,23.0316,VALID,297,VALID,0.43125,
2010-12-09, 02:40:05,VALID,1007.94,VALID,0,VALID,103.924,VALID,0,VALID,23.0511,VALID,303,VALID,0.0601562,
2010-12-09, 02:41:05,VALID,1007.94,VALID,0,VALID,103.977,VALID,0,VALID,23.0511,VALID,347,VALID,1.5957,
2010-12-09, 02:42:05,VALID,1007.93,VALID,0,VALID,103.985,VALID,0,VALID,23.0316,VALID,1,VALID,0.805078,
2010-12-09, 02:43:05,VALID,1007.86,VALID,0,VALID,103.977,VALID,0,VALID,23.0316,VALID,345,VALID,0.271094,
2010-12-09, 02:44:05,VALID,1007.8,VALID,0,VALID,103.985,VALID,0,VALID,23.0121,VALID,46,VALID,0.741406,
2010-12-09, 02:45:05,VALID,1007.8,VALID,0,VALID,103.985,VALID,0,VALID,22.9926,VALID,94,VALID,1.0543,
2010-12-09, 02:46:05,VALID,1007.85,VALID,0,VALID,103.992,VALID,0.105969,VALID,22.9926,VALID,90,VALID,0.459766,
2010-12-09, 02:47:05,VALID,1007.95,VALID,0,VALID,103.947,VALID,0,VALID,22.9926,VALID,90,VALID,0.444141,
2010-12-09, 02:48:05,VALID,1008,VALID,0.5,VALID,103.947,VALID,0,VALID,23.0121,VALID,356,VALID,0.339453,
2010-12-09, 02:49:05,VALID,1008.04,VALID,0,VALID,103.954,VALID,0,VALID,22.9926,VALID,293,VALID,0.530078,
2010-12-09, 02:50:05,VALID,1008.06,VALID,0,VALID,103.931,VALID,0,VALID,22.9926,VALID,291,VALID,0.392578,
2010-12-09, 02:51:05,VALID,1008.02,VALID,0.5,VALID,103.962,VALID,0,VALID,22.9731,VALID,291,VALID,0,
2010-12-09, 02:52:05,VALID,1008.03,VALID,0,VALID,103.962,VALID,0,VALID,22.9731,VALID,291,VALID,0.0277344,
2010-12-09, 02:53:05,VALID,1008.02,VALID,0,VALID,103.954,VALID,0,VALID,22.9324,VALID,291,VALID,0,
2010-12-09, 02:54:05,VALID,1008.02,VALID,0,VALID,103.985,VALID,0,VALID,22.9147,VALID,320,VALID,0.128516,
2010-12-09, 02:55:05,VALID,1008.01,VALID,0,VALID,103.992,VALID,0,VALID,22.9147,VALID,68,VALID,1.03555,
2010-12-09, 02:56:05,VALID,1007.96,VALID,0.5,VALID,103.939,VALID,0,VALID,22.9147,VALID,68,VALID,0.903516,
2010-12-09, 02:57:05,VALID,1008.02,VALID,0,VALID,103.931,VALID,0,VALID,22.8952,VALID,16,VALID,0.630469,
2010-12-09, 02:58:05,VALID,1008.02,VALID,0,VALID,103.931,VALID,0,VALID,22.8757,VALID,5,VALID,0.505859,
2010-12-09, 02:59:05,VALID,1007.99,VALID,0,VALID,103.901,VALID,0,VALID,22.8757,VALID,5,VALID,0.268359,
2010-12-09, 03:00:05,VALID,1007.98,VALID,0,VALID,103.863,VALID,0,VALID,22.8952,VALID,5,VALID,0.116016,
2010-12-09, 03:01:05,VALID,1008.07,VALID,0,VALID,103.848,VALID,0,VALID,22.8952,VALID,5,VALID,0,
2010-12-09, 03:02:05,VALID,1008.11,VALID,0,VALID,103.855,VALID,0,VALID,22.8757,VALID,5,VALID,0,
2010-12-09, 03:03:05,VALID,1008.13,VALID,0.5,VALID,103.848,VALID,0,VALID,22.874,VALID,5,VALID,0,
2010-12-09, 03:04:05,VALID,1008.1,VALID,0,VALID,103.794,VALID,0,VALID,22.8545,VALID,5,VALID,1.02461,
2010-12-09, 03:05:05,VALID,1008.12,VALID,0,VALID,103.764,VALID,0,VALID,22.8952,VALID,5,VALID,0.0121094,
2010-12-09, 03:06:05,VALID,1007.96,VALID,0,VALID,103.756,VALID,0,VALID,22.874,VALID,67,VALID,1.37109,
2010-12-09, 03:07:05,VALID,1008,VALID,0.5,VALID,103.779,VALID,0,VALID,22.8952,VALID,100,VALID,1.46914,
2010-12-09, 03:08:05,VALID,1008.1,VALID,0,VALID,103.794,VALID,0,VALID,22.8757,VALID,250,VALID,1.17188,
2010-12-09, 03:09:05,VALID,1008.06,VALID,0,VALID,103.764,VALID,0,VALID,22.8562,VALID,242,VALID,0.738281,
2010-12-09, 03:10:05,VALID,1008.04,VALID,0.5,VALID,103.733,VALID,0,VALID,22.8952,VALID,259,VALID,0.0984375,
2010-12-09, 03:11:05,VALID,1007.93,VALID,0.5,VALID,103.726,VALID,0,VALID,22.8952,VALID,270,VALID,0.126172,
2010-12-09, 03:12:05,VALID,1007.86,VALID,0.5,VALID,103.756,VALID,0,VALID,22.8757,VALID,10,VALID,0.601953,
2010-12-09, 03:13:05,VALID,1007.83,VALID,0.5,VALID,103.733,VALID,0,VALID,22.8757,VALID,10,VALID,0,
2010-12-09, 03:14:05,VALID,1007.81,VALID,0,VALID,103.687,VALID,0,VALID,22.8952,VALID,10,VALID,0,
2010-12-09, 03:15:05,VALID,1007.76,VALID,0,VALID,103.695,VALID,0,VALID,22.8757,VALID,10,VALID,0,
2010-12-09, 03:16:05,VALID,1007.77,VALID,0,VALID,103.68,VALID,0,VALID,22.8952,VALID,10,VALID,0,
2010-12-09, 03:17:05,VALID,1007.73,VALID,0,VALID,103.664,VALID,0,VALID,22.8952,VALID,128,VALID,0,
2010-12-09, 03:18:05,VALID,1007.71,VALID,0,VALID,103.657,VALID,0,VALID,22.8545,VALID,108,VALID,1.18086,
2010-12-09, 03:19:05,VALID,1007.76,VALID,0,VALID,103.649,VALID,0.105969,VALID,22.8757,VALID,113,VALID,0.750781,
2010-12-09, 03:20:05,VALID,1007.77,VALID,0,VALID,103.649,VALID,0,VALID,22.8757,VALID,112,VALID,0.903125,
2010-12-09, 03:21:05,VALID,1007.78,VALID,0,VALID,103.664,VALID,0,VALID,22.8562,VALID,112,VALID,0.605078,
2010-12-09, 03:22:05,VALID,1007.77,VALID,0,VALID,103.634,VALID,0,VALID,22.8562,VALID,112,VALID,0.559766,
2010-12-09, 03:23:05,VALID,1007.8,VALID,0,VALID,103.634,VALID,0,VALID,22.8562,VALID,99,VALID,0.817578,
2010-12-09, 03:24:05,VALID,1007.78,VALID,0,VALID,103.626,VALID,0,VALID,22.8562,VALID,93,VALID,0.777344,
2010-12-09, 03:25:05,VALID,1007.79,VALID,0,VALID,103.588,VALID,0,VALID,22.8368,VALID,116,VALID,0.771094,
2010-12-09, 03:26:05,VALID,1007.76,VALID,0,VALID,103.603,VALID,0,VALID,22.8562,VALID,119,VALID,1.02422,
2010-12-09, 03:27:05,VALID,1007.77,VALID,0,VALID,103.588,VALID,0,VALID,22.8368,VALID,128,VALID,0.908203,
2010-12-09, 03:28:05,VALID,1007.78,VALID,0,VALID,103.573,VALID,0,VALID,22.8562,VALID,125,VALID,0.585938,
2010-12-09, 03:29:05,VALID,1007.78,VALID,0,VALID,103.535,VALID,0,VALID,22.8757,VALID,101,VALID,1.12578,
2010-12-09, 03:30:05,VALID,1007.79,VALID,0,VALID,103.512,VALID,0,VALID,22.8757,VALID,101,VALID,0.0847656,
2010-12-09, 03:31:05,VALID,1007.79,VALID,0,VALID,103.52,VALID,0,VALID,22.8952,VALID,101,VALID,0,
2010-12-09, 03:32:05,VALID,1007.81,VALID,0,VALID,103.497,VALID,0,VALID,22.8952,VALID,98,VALID,0,
2010-12-09, 03:33:05,VALID,1007.83,VALID,0,VALID,103.52,VALID,0,VALID,22.8757,VALID,74,VALID,1.03906,
2010-12-09, 03:34:05,VALID,1007.82,VALID,0,VALID,103.52,VALID,0,VALID,22.8757,VALID,74,VALID,1.00898,
2010-12-09, 03:35:05,VALID,1007.83,VALID,0,VALID,103.512,VALID,0,VALID,22.8757,VALID,74,VALID,0.842578,
2010-12-09, 03:36:05,VALID,1007.81,VALID,0,VALID,103.497,VALID,0,VALID,22.8952,VALID,74,VALID,0.0449219,
2010-12-09, 03:37:05,VALID,1007.77,VALID,0,VALID,103.474,VALID,0,VALID,22.8952,VALID,74,VALID,0,
2010-12-09, 03:38:05,VALID,1007.76,VALID,0,VALID,103.474,VALID,0,VALID,22.8952,VALID,74,VALID,0,
2010-12-09, 03:39:05,VALID,1007.78,VALID,0,VALID,103.474,VALID,0,VALID,22.8952,VALID,74,VALID,0,
2010-12-09, 03:40:05,VALID,1007.74,VALID,0,VALID,103.466,VALID,0,VALID,22.8952,VALID,74,VALID,0,
2010-12-09, 03:41:05,VALID,1007.72,VALID,0,VALID,103.451,VALID,0,VALID,22.8952,VALID,74,VALID,0,
2010-12-09, 03:42:05,VALID,1007.67,VALID,0,VALID,103.459,VALID,0.105969,VALID,22.8757,VALID,74,VALID,0.642969,
2010-12-09, 03:43:05,VALID,1007.66,VALID,0,VALID,103.459,VALID,0,VALID,22.8952,VALID,74,VALID,0.345703,
2010-12-09, 03:44:05,VALID,1007.64,VALID,0,VALID,103.428,VALID,0,VALID,22.8757,VALID,74,VALID,0,
2010-12-09, 03:45:05,VALID,1007.62,VALID,0,VALID,103.436,VALID,0.105969,VALID,22.8952,VALID,74,VALID,0.691797,
2010-12-09, 03:46:05,VALID,1007.6,VALID,0,VALID,103.42,VALID,0,VALID,22.8952,VALID,74,VALID,0.561328,
2010-12-09, 03:47:05,VALID,1007.68,VALID,0.5,VALID,103.405,VALID,0,VALID,22.8952,VALID,74,VALID,0.273047,
2010-12-09, 03:48:05,VALID,1007.71,VALID,0,VALID,103.39,VALID,0,VALID,22.8952,VALID,74,VALID,0,
2010-12-09, 03:49:05,VALID,1007.69,VALID,0,VALID,103.398,VALID,0,VALID,22.874,VALID,74,VALID,0,
2010-12-09, 03:50:05,VALID,1007.68,VALID,0,VALID,103.382,VALID,0,VALID,22.8952,VALID,74,VALID,0,
2010-12-09, 03:51:05,VALID,1007.62,VALID,0,VALID,103.375,VALID,0,VALID,22.9147,VALID,85,VALID,0.635156,
2010-12-09, 03:52:05,VALID,1007.59,VALID,0,VALID,103.359,VALID,0,VALID,22.8935,VALID,85,VALID,0.869922,
2010-12-09, 03:53:05,VALID,1007.6,VALID,0,VALID,103.321,VALID,0,VALID,22.9342,VALID,85,VALID,0.231641,